Regional Weather Roundup
Issued by NWS New Orleans/Baton Rouge, LA

Home | Current Version | Previous Version | Graphics & Text | Print | Product List | Glossary On
Versions: 1 2 3 4 5 6 7 8 9 10 11 12 13 14 15 16 17 18 19 20 21 22 23 24 25 26 27 28 29 30 31 32 33 34 35 36 37 38 39 40 41 42 43 44 45 46 47 48 49 50
498
ASUS44 KLIX 271710
RWRLIX
NEW ORLEANS REGIONAL WEATHER ROUNDUP
NATIONAL WEATHER SERVICE NEW ORLEANS LA
1100 AM CST THU NOV 27 2014

NOTE: "FAIR" INDICATES FEW OR NO CLOUDS BELOW 12,000 FEET WITH NO
      SIGNIFICANT WEATHER AND/OR OBSTRUCTIONS TO VISIBILITY.
      SKY/WX - SKY CONDITION AND SIGNIFICANT WEATHER.
      TMP - AIR TEMPERATURE.     DP    - DEWPOINT TEMPERATURE.
      RH  - RELATIVE HUMIDITY.   PRES  - PRESSURE.
      HI  - HEAT INDEX.          WCI   - WIND CHILL INDEX.

*  THESE STATIONS ARE NOT NWS OR FAA STATIONS AND ARE NOT UNDER
   NWS QUALITY CONTROL.

LAZ038-040-048-061>063-065>067-069-271800-
SOUTHEAST LOUISIANA

CITY           SKY/WX    TMP DP  RH WIND       PRES   REMARKS
N.O. AUDUBON     N/A     58  36  42 MISG        N/A
N.O. INTL ARPT MOSUNNY   55  34  45 N16       30.44F
N.O. LAKEFRONT SUNNY     57  35  43 N12       30.45F
N.O. DOWNTOWN*   N/A     55  32  41 N8G17     30.44F
SLIDELL        SUNNY     57  32  38 N12       30.42F
BATON ROUGE    SUNNY     56  30  37 N9        30.46F
BOOTHVILLE     SUNNY     56  40  55 N8        30.43F
BELLE CHASSE   SUNNY     58  32  37 N7        30.43F
BOGALUSA*        N/A     56  31  39 N10       30.45F
NEW ROADS*       N/A     55  31  39 NW7       30.47F
GONZALES*        N/A     56  32  40 N8        30.44F
HAMMOND*       SUNNY     57  28  33 N10       30.46F
HOUMA*         SUNNY     61  34  36 N17       30.43F
PORT FOURCHON* SUNNY     59  36  41 N15       30.46F

$$

MSZ070-080>082-271800-
SOUTHERN MISSISSIPPI

CITY           SKY/WX    TMP DP  RH WIND       PRES   REMARKS
MCCOMB         SUNNY     52  29  41 N12       30.45F
GULFPORT       SUNNY     57  33  40 N12G20    30.41F
BILOXI         SUNNY     56  33  41 VRB3      30.41F
PASCAGOULA     SUNNY     57  32  38 N15       30.40F
STENNIS ARPT*  SUNNY     55  27  33 N12G17    30.42F

$$

COASTAL OBSERVATIONS
LAKE AND NEARSHORE STATIONS

STATION/POSITION TIME  TEMP    WIND        PRES    WAVE
                       AIR SEA DIR/SP/G            HT/PER
                 (UTC) (F)     (DEG/KT/KT) (MB)    (FT/S)
PASCAGOULA       1700   56      10/ 13/ 18 1028.9
WAVELAND YACHT   1700   53     360/ 14/ 18 1029.3
GRAND ISLE       1700   56 59   30/ 12/ 16 1030.8
SOUTHWEST PASS   1700   60                 1030.4
NEW CANAL        1700   52 54   10/ 11/ 14 1031.1
SHELL BEACH      1700   52 52   10/ 12/ 14 1030.3

OFFSHORE STATIONS

STATION/POSITION TIME  TEMP    WIND        PRES    WAVE
                       AIR SEA DIR/SP/G            HT/PER
                 (UTC) (F)     (DEG/KT/KT) (MB)    (FT/S)
64 S DAUPHIN ISL 1646   58 70  350/ 17/ 21 1029.7    4/ 6

$$




USA.gov is the U.S. government's official web portal to all federal, state and local government web resources and services.